Location: México DF
(19.4326°N, 99.1332°W)
Time: 11:38:27
(UTC+00:00)

ISS - Pass Details

Date: 11 July 2025
Orbit: 415 x 418 km, 51.6° (Epoch: 17 July)

Event Time Altitude Azimuth Distance (km) Brightness Sun altitude
Exits shadow 09:27:11 - 17° (NNE) 1,632 -0.1 -32.2°
Reaches altitude 10° 09:28:25 10° 36° (NE) 1,483 -0.1 -31.9°
Maximum altitude 09:28:53 10° 44° (NE) 1,470 -0.1 -31.9°
Drops below altitude 10° 09:29:21 10° 52° (NE) 1,483 -0.1 -31.8°
Sets 09:33:14 0° 98° (E) 2,345 0.5 -31.1°
